• în Republica Moldova
  • Lista ţărilor
  • Pe 7 zile
  • Temperatura apei
  • Hartă satelitară
  • Meteo pe hartă
  • Widget-uri
  • user-avatar
    Intrare

    Meteo pe oră la Townsville

    Astăzi, 18 August, Vineri

    Timp Temperatura Precipitaţii Vânt Presiune Umiditate
    00:00 +20°C° 0 mm 1 m/s 754 mmHg 95%
    01:00 +20°C° 0 mm 1 m/s 754 mmHg 95%
    02:00 +20°C° 0 mm 1 m/s 754 mmHg 95%
    03:00 +20°C° 0 mm 1 m/s 754 mmHg 96%
    04:00 +20°C° 0 mm 1 m/s 754 mmHg 96%
    05:00 +20°C° 0 mm 1 m/s 754 mmHg 96%
    06:00 +20°C° 0 mm 1 m/s 755 mmHg 95%
    07:00 +20°C° 0 mm 1 m/s 755 mmHg 95%
    08:00 +23°C° 0 mm 1 m/s 755 mmHg 80%
    09:00 +27°C° 0 mm 1 m/s 756 mmHg 65%
    10:00 +30°C° 0 mm 1 m/s 756 mmHg 54%
    11:00 +31°C° 0 mm 1 m/s 755 mmHg 48%
    12:00 +32°C° 0 mm 2 m/s 755 mmHg 42%
    13:00 +35°C° 0 mm 2 m/s 755 mmHg 36%
    14:00 +34°C° 0 mm 2 m/s 754 mmHg 38%
    15:00 +34°C° 0 mm 2 m/s 754 mmHg 40%
    16:00 +32°C° 0 mm 2 m/s 753 mmHg 43%
    17:00 +29°C° 0 mm 2 m/s 754 mmHg 54%
    18:00 +27°C° 0 mm 2 m/s 754 mmHg 66%
    19:00 +24°C° 0 mm 2 m/s 754 mmHg 78%
    20:00 +24°C° 0 mm 1 m/s 755 mmHg 79%
    21:00 +23°C° 0 mm 1 m/s 755 mmHg 81%
    22:00 +23°C° 0 mm 1 m/s 755 mmHg 83%
    23:00 +22°C° 0 mm 1 m/s 755 mmHg 84%

    Mâine, 19 August, Sâmbătă

    Timp Temperatura Precipitaţii Vânt Presiune Umiditate
    00:00 +22°C° 0 mm 1 m/s 755 mmHg 85%
    01:00 +20°C° 0 mm 0 m/s 756 mmHg 86%
    02:00 +21°C° 0 mm 1 m/s 756 mmHg 82%
    03:00 +20°C° 0 mm 2 m/s 756 mmHg 79%
    04:00 +20°C° 0 mm 2 m/s 756 mmHg 76%
    05:00 +20°C° 0 mm 3 m/s 756 mmHg 63%
    06:00 +19°C° 0 mm 3 m/s 756 mmHg 51%
    07:00 +19°C° 0 mm 4 m/s 757 mmHg 39%
    08:00 +22°C° 0 mm 4 m/s 757 mmHg 32%
    09:00 +25°C° 0 mm 5 m/s 757 mmHg 26%
    10:00 +28°C° 0 mm 5 m/s 758 mmHg 20%
    11:00 +29°C° 0 mm 5 m/s 757 mmHg 18%
    12:00 +30°C° 0 mm 5 m/s 756 mmHg 16%
    13:00 +33°C° 0 mm 5 m/s 756 mmHg 14%
    14:00 +32°C° 0 mm 5 m/s 756 mmHg 15%
    15:00 +32°C° 0 mm 6 m/s 755 mmHg 15%
    16:00 +32°C° 0 mm 6 m/s 755 mmHg 15%
    17:00 +28°C° 0 mm 5 m/s 755 mmHg 23%
    18:00 +25°C° 0 mm 4 m/s 756 mmHg 30%
    19:00 +21°C° 0 mm 4 m/s 756 mmHg 37%
    20:00 +20°C° 0 mm 4 m/s 757 mmHg 40%
    21:00 +19°C° 0 mm 3 m/s 757 mmHg 43%
    22:00 +18°C° 0 mm 3 m/s 757 mmHg 46%
    23:00 +17°C° 0 mm 3 m/s 757 mmHg 45%

    Poimâine, 20 August, Duminică

    Timp Temperatura Precipitaţii Vânt Presiune Umiditate
    00:00 +17°C° 0 mm 3 m/s 757 mmHg 44%
    01:00 +16°C° 0 mm 3 m/s 757 mmHg 43%
    02:00 +16°C° 0 mm 3 m/s 757 mmHg 39%
    03:00 +14°C° 0 mm 3 m/s 757 mmHg 36%
    04:00 +14°C° 0 mm 3 m/s 757 mmHg 33%
    05:00 +14°C° 0 mm 4 m/s 757 mmHg 32%
    06:00 +13°C° 0 mm 4 m/s 757 mmHg 32%
    07:00 +13°C° 0 mm 4 m/s 758 mmHg 32%
    08:00 +16°C° 0 mm 5 m/s 758 mmHg 28%
    09:00 +20°C° 0 mm 5 m/s 758 mmHg 24%
    10:00 +23°C° 0 mm 5 m/s 759 mmHg 20%
    11:00 +25°C° 0 mm 5 m/s 758 mmHg 18%
    12:00 +27°C° 0 mm 4 m/s 757 mmHg 16%
    13:00 +28°C° 0 mm 4 m/s 757 mmHg 14%
    14:00 +28°C° 0 mm 4 m/s 756 mmHg 14%
    15:00 +28°C° 0 mm 4 m/s 756 mmHg 14%
    16:00 +28°C° 0 mm 4 m/s 755 mmHg 15%
    17:00 +25°C° 0 mm 4 m/s 756 mmHg 26%
    18:00 +21°C° 0 mm 3 m/s 756 mmHg 37%
    19:00 +18°C° 0 mm 3 m/s 756 mmHg 49%
    20:00 +17°C° 0 mm 3 m/s 757 mmHg 58%
    21:00 +17°C° 0 mm 3 m/s 757 mmHg 68%
    22:00 +16°C° 0 mm 3 m/s 757 mmHg 78%
    23:00 +16°C° 0 mm 3 m/s 757 mmHg 80%

    21 August, Luni

    Timp Temperatura Precipitaţii Vânt Presiune Umiditate
    00:00 +14°C° 0 mm 3 m/s 757 mmHg 82%
    01:00 +14°C° 0 mm 4 m/s 757 mmHg 84%
    02:00 +13°C° 0 mm 4 m/s 757 mmHg 81%
    03:00 +13°C° 0 mm 4 m/s 756 mmHg 78%
    04:00 +13°C° 0 mm 4 m/s 756 mmHg 75%
    05:00 +12°C° 0 mm 3 m/s 757 mmHg 71%
    06:00 +12°C° 0 mm 3 m/s 757 mmHg 66%
    07:00 +12°C° 0 mm 3 m/s 758 mmHg 61%
    08:00 +16°C° 0 mm 3 m/s 758 mmHg 54%
    09:00 +20°C° 0 mm 4 m/s 758 mmHg 48%
    10:00 +23°C° 0 mm 4 m/s 758 mmHg 41%
    11:00 +25°C° 0 mm 4 m/s 757 mmHg 40%
    12:00 +26°C° 0 mm 4 m/s 757 mmHg 39%
    13:00 +27°C° 0 mm 4 m/s 756 mmHg 38%
    14:00 +27°C° 0 mm 4 m/s 755 mmHg 42%
    15:00 +27°C° 0 mm 4 m/s 755 mmHg 46%
    16:00 +26°C° 0 mm 3 m/s 755 mmHg 50%
    17:00 +24°C° 0 mm 3 m/s 755 mmHg 60%
    18:00 +21°C° 0 mm 3 m/s 756 mmHg 69%
    19:00 +19°C° 0 mm 2 m/s 756 mmHg 79%
    20:00 +19°C° 0 mm 2 m/s 756 mmHg 84%
    21:00 +18°C° 0 mm 2 m/s 757 mmHg 88%
    22:00 +18°C° 0 mm 2 m/s 757 mmHg 92%
    23:00 +18°C° 0 mm 2 m/s 757 mmHg 93%

    22 August, Marţi

    Timp Temperatura Precipitaţii Vânt Presiune Umiditate
    00:00 +18°C° 0 mm 2 m/s 757 mmHg 94%
    01:00 +18°C° 0 mm 2 m/s 756 mmHg 95%
    02:00 +18°C° 0 mm 2 m/s 756 mmHg 95%
    03:00 +17°C° 0 mm 2 m/s 756 mmHg 95%
    04:00 +17°C° 0 mm 2 m/s 756 mmHg 95%
    05:00 +18°C° 0 mm 2 m/s 756 mmHg 95%
    06:00 +18°C° 0 mm 2 m/s 757 mmHg 95%
    07:00 +18°C° 0 mm 2 m/s 757 mmHg 95%
    08:00 +20°C° 0 mm 2 m/s 757 mmHg 83%
    09:00 +24°C° 0 mm 2 m/s 757 mmHg 71%
    10:00 +27°C° 0 mm 3 m/s 758 mmHg 59%
    11:00 +27°C° 0 mm 3 m/s 757 mmHg 55%
    12:00 +28°C° 0 mm 3 m/s 756 mmHg 52%
    13:00 +29°C° 0 mm 3 m/s 755 mmHg 49%
    14:00 +29°C° 0 mm 3 m/s 755 mmHg 50%
    15:00 +29°C° 0 mm 3 m/s 755 mmHg 51%
    16:00 +28°C° 0 mm 3 m/s 755 mmHg 51%
    17:00 +26°C° 0 mm 3 m/s 755 mmHg 62%
    18:00 +24°C° 0 mm 3 m/s 756 mmHg 72%
    19:00 +21°C° 0 mm 2 m/s 756 mmHg 82%
    20:00 +20°C° 0 mm 2 m/s 757 mmHg 86%
    21:00 +20°C° 0 mm 2 m/s 757 mmHg 89%
    22:00 +20°C° 0 mm 2 m/s 757 mmHg 93%
    23:00 +20°C° 0 mm 2 m/s 757 mmHg 94%

    23 August, Miercuri

    Timp Temperatura Precipitaţii Vânt Presiune Umiditate
    00:00 +20°C° 0 mm 2 m/s 757 mmHg 95%
    01:00 +20°C° 0 mm 2 m/s 757 mmHg 96%
    02:00 +20°C° 0 mm 2 m/s 757 mmHg 95%
    03:00 +20°C° 0 mm 2 m/s 756 mmHg 94%
    04:00 +20°C° 0 mm 2 m/s 756 mmHg 93%
    05:00 +20°C° 0 mm 2 m/s 757 mmHg 92%
    06:00 +20°C° 0 mm 2 m/s 757 mmHg 91%
    07:00 +20°C° 0 mm 2 m/s 757 mmHg 91%
    08:00 +23°C° 0 mm 2 m/s 758 mmHg 80%
    09:00 +25°C° 0 mm 3 m/s 758 mmHg 70%
    10:00 +27°C° 0 mm 3 m/s 758 mmHg 59%
    11:00 +28°C° 0 mm 3 m/s 757 mmHg 54%
    12:00 +29°C° 0 mm 3 m/s 756 mmHg 49%
    13:00 +30°C° 0 mm 3 m/s 756 mmHg 44%
    14:00 +30°C° 0 mm 3 m/s 756 mmHg 46%
    15:00 +29°C° 0 mm 3 m/s 755 mmHg 48%
    16:00 +28°C° 0 mm 3 m/s 755 mmHg 50%
    17:00 +26°C° 0 mm 3 m/s 756 mmHg 59%
    18:00 +24°C° 0 mm 3 m/s 756 mmHg 67%
    19:00 +21°C° 0 mm 3 m/s 757 mmHg 76%
    20:00 +21°C° 0 mm 3 m/s 757 mmHg 80%
    21:00 +20°C° 0 mm 3 m/s 757 mmHg 84%
    22:00 +20°C° 0 mm 2 m/s 757 mmHg 88%
    23:00 +20°C° 0 mm 3 m/s 757 mmHg 89%
    Arată mai mult